FW3613 Weather Reports


Display with metric or nautical units.
time (UTC)temp
F
wind
direction
speed
MPH
gust
MPH
rain 1hr
in
rain 24hr
in
rain mn
in
humidity
%
barometer
mb
20260904110001 47 320 1.0 7.0 0.00 0.18 0.16 93 1012.5
20260904105501 47 314 2.0 7.0 0.00 0.19 0.16 93 1012.5
20260904105001 48 316 1.0 7.0 0.01 0.19 0.16 93 1012.5
20260904104611 48 311 2.0 7.0 0.01 0.19 0.16 93 1012.4
20260904104058 48 327 2.0 6.0 0.01 0.19 0.16 93 1012.2
20260904103559 48 330 2.0 6.0 0.01 0.19 0.16 93 1012.3
20260904103106 48 309 1.0 6.0 0.01 0.19 0.16 93 1012.2
20260904102557 48 323 1.0 7.0 0.01 0.19 0.16 93 1012.1
20260904102057 48 319 3.0 7.0 0.01 0.19 0.16 93 1012.1
20260904101602 48 320 1.0 4.0 0.01 0.19 0.16 93 1011.8
20260904101055 48 326 1.0 3.0 0.01 0.19 0.16 93 1011.8
20260904100555 48 321 1.0 4.0 0.01 0.19 0.16 93 1011.8
20260904100054 48 325 0.0 4.0 0.01 0.19 0.16 93 1011.8
20260904095554 48 311 0.0 2.0 0.01 0.22 0.16 93 1011.8
20260904095053 48 135 0.0 1.0 0.00 0.21 0.15 93 1011.5
20260904094554 48 334 0.0 2.0 0.01 0.21 0.15 93 1011.3
20260904094052 48 336 0.0 2.0 0.01 0.21 0.15 93 1011.3
20260904093552 48 325 0.0 2.0 0.01 0.21 0.15 94 1011.5
20260904093052 48 325 0.0 1.0 0.01 0.21 0.15 94 1011.5
20260904092550 48 325 0.0 1.0 0.01 0.21 0.15 93 1011.2
20260904092052 48 325 0.0 1.0 0.01 0.21 0.15 93 1011.1
20260904091551 48 325 0.0 0.0 0.02 0.21 0.15 93 1011.0
20260904091050 48 325 0.0 1.0 0.02 0.21 0.15 93 1011.3
20260904090549 48 324 0.0 1.0 0.02 0.21 0.15 93 1011.3
20260904090050 48 325 0.0 0.0 0.02 0.21 0.15 93 1011.3
20260904085549 48 325 0.0 1.0 0.02 0.22 0.15 93 1011.4
20260904085049 48 325 0.0 2.0 0.02 0.22 0.15 93 1011.4
20260904084550 48 325 0.0 2.0 0.02 0.21 0.14 93 1011.3
20260904084048 48 330 0.0 2.0 0.02 0.21 0.14 93 1011.4
20260904083549 48 63 0.0 3.0 0.02 0.21 0.14 93 1011.2
20260904083055 48 318 1.0 3.0 0.03 0.21 0.14 93 1011.1
20260904082547 48 323 1.0 3.0 0.05 0.21 0.14 93 1011.1
20260904082048 48 193 0.0 3.0 0.06 0.21 0.14 93 1011.1
20260904081550 48 330 1.0 5.0 0.06 0.20 0.13 92 1011.0
20260904081047 48 323 1.0 5.0 0.07 0.20 0.13 92 1011.0
20260904080547 47 333 2.0 4.0 0.08 0.20 0.13 92 1011.0
20260904080046 47 236 1.0 3.0 0.10 0.20 0.13 92 1011.2
20260904075545 47 325 1.0 2.0 0.10 0.20 0.13 92 1011.1
20260904075045 47 335 0.0 3.0 0.10 0.20 0.13 92 1011.2
20260904074557 47 323 0.0 4.0 0.10 0.19 0.12 91 1011.0
20260904074045 47 336 2.0 5.0 0.10 0.19 0.12 91 1011.1
20260904073545 47 322 2.0 6.0 0.10 0.19 0.12 91 1011.3
20260904073047 47 313 3.0 6.0 0.09 0.18 0.11 91 1011.3
20260904072543 47 322 2.0 4.0 0.08 0.16 0.09 91 1011.3
20260904072044 47 321 1.0 4.0 0.07 0.15 0.08 91 1011.5
20260904071544 48 326 1.0 6.0 0.06 0.14 0.07 91 1011.5
20260904071043 47 344 1.0 6.0 0.06 0.13 0.06 91 1011.4
20260904070542 48 326 2.0 7.0 0.04 0.11 0.04 90 1011.5
20260904070042 48 320 1.0 7.0 0.03 0.10 0.03 90 1011.5
20260904065541 48 324 1.0 7.0 0.03 0.10 0.03 90 1011.5
20260904065040 48 304 3.0 7.0 0.03 0.10 0.03 89 1011.3
20260904064540 48 319 0.0 9.0 0.02 0.09 0.02 90 1011.2
20260904064039 48 321 3.0 9.0 0.02 0.09 0.02 89 1011.1
20260904063538 48 314 3.0 8.0 0.02 0.09 0.02 88 1010.9
20260904063052 48 330 3.0 9.0 0.02 0.09 0.02 88 1011.1
20260904062535 48 311 3.0 11.0 0.01 0.08 0.01 87 1011.0
20260904062034 48 340 4.0 11.0 0.01 0.08 0.01 86 1011.1
20260904061536 49 4 4.0 9.0 0.00 0.07 0.00 85 1011.0
20260904061034 49 325 4.0 9.0 0.00 0.07 0.00 84 1011.1
20260904060533 49 327 3.0 7.0 0.00 0.07 0.00 84 1011.1
20260904060043 49 321 2.0 6.0 0.00 0.07 0.00 84 1011.0
20260904055529 49 326 2.0 6.0 0.00 0.07 0.07 83 1011.0
20260904055030 49 285 2.0 8.0 0.00 0.07 0.07 82 1010.9
20260904054530 49 305 2.0 8.0 0.00 0.07 0.07 82 1010.7
20260904054030 49 319 2.0 10.0 0.00 0.07 0.07 83 1010.4
20260904053528 49 313 3.0 10.0 0.00 0.07 0.07 83 1010.2
20260904053033 49 325 4.0 10.0 0.00 0.07 0.07 82 1010.4
20260904052528 49 320 4.0 10.0 0.00 0.07 0.07 81 1010.4
20260904052032 49 311 3.0 9.0 0.00 0.07 0.07 81 1010.6
20260904051527 49 314 3.0 9.0 0.00 0.07 0.07 82 1011.0
20260904051027 49 314 3.0 12.0 0.00 0.07 0.07 82 1011.1
20260904050527 49 330 5.0 13.0 0.00 0.07 0.07 82 1011.1
20260904050027 49 316 3.0 13.0 0.00 0.07 0.07 83 1011.1
20260904045526 49 320 3.0 9.0 0.00 0.07 0.07 82 1011.2
20260904045026 49 309 3.0 11.0 0.00 0.07 0.07 82 1010.9
20260904044539 49 314 5.0 15.0 0.00 0.07 0.07 80 1011.0
20260904044025 50 342 6.0 17.0 0.00 0.07 0.07 78 1010.9
20260904043524 50 316 6.0 20.0 0.00 0.07 0.07 76 1011.4
20260904043023 50 323 10.0 17.0 0.00 0.07 0.07 76 1011.5
20260904042522 50 326 7.0 17.0 0.00 0.07 0.07 75 1011.3
20260904042021 51 312 8.0 15.0 0.00 0.07 0.07 76 1011.2
20260904041520 51 260 4.0 15.0 0.00 0.07 0.07 76 1011.2
20260904041021 51 314 7.0 16.0 0.00 0.07 0.07 76 1010.9
20260904040517 51 318 6.0 17.0 0.00 0.07 0.07 76 1010.9
20260904040016 51 341 7.0 17.0 0.00 0.07 0.07 74 1010.7
20260904035515 52 322 5.0 21.0 0.00 0.07 0.07 74 1010.7
20260904035014 53 356 7.0 21.0 0.00 0.07 0.07 74 1010.4
20260904034512 53 311 9.0 17.0 0.00 0.07 0.07 74 1010.1
20260904034011 53 319 8.0 15.0 0.00 0.07 0.07 73 1010.1
20260904033513 54 314 7.0 15.0 0.00 0.07 0.07 73 1009.7
20260904033008 55 296 7.0 17.0 0.00 0.07 0.07 73 1009.7
20260904032507 56 301 5.0 17.0 0.00 0.07 0.07 74 1009.6
20260904032006 56 326 6.0 21.0 0.00 0.07 0.07 74 1009.5
20260904031506 56 321 8.0 21.0 0.00 0.07 0.07 72 1009.2
20260904031005 57 316 7.0 20.0 0.00 0.07 0.07 72 1008.7
20260904030505 58 53 9.0 20.0 0.00 0.07 0.07 71 1008.2
20260904030004 59 314 5.0 12.0 0.00 0.07 0.07 74 1008.0
20260904025504 60 22 6.0 12.0 0.00 0.07 0.07 73 1007.8
20260904025002 60 319 6.0 17.0 0.00 0.07 0.07 72 1007.5
20260904024505 61 337 6.0 18.0 0.00 0.07 0.07 71 1007.1
20260904024004 63 323 8.0 18.0 0.00 0.07 0.07 69 1007.0
20260904023502 64 301 6.0 13.0 0.00 0.07 0.07 67 1006.6
20260904023002 65 326 5.0 12.0 0.00 0.07 0.07 66 1006.5
20260904022502 65 315 4.0 9.0 0.00 0.07 0.07 65 1006.2
20260904022001 66 323 3.0 9.0 0.00 0.07 0.07 65 1006.1
20260904021501 66 323 1.0 5.0 0.00 0.07 0.07 65 1006.1
20260904021004 66 324 2.0 5.0 0.00 0.07 0.07 64 1006.0
20260904020600 67 321 2.0 6.0 0.00 0.07 0.07 64 1006.1
20260904020101 67 325 1.0 6.0 0.00 0.07 0.07 64 1006.1
20260904015602 67 5 1.0 6.0 0.00 0.07 0.07 63 1006.1
20260904015101 67 324 2.0 7.0 0.00 0.07 0.07 63 1006.1
20260904014601 68 318 2.0 7.0 0.00 0.07 0.07 62 1006.1
20260904014101 68 314 1.0 5.0 0.00 0.07 0.07 62 1006.1
20260904013601 68 277 3.0 5.0 0.00 0.07 0.07 61 1006.1
20260904013059 69 330 1.0 7.0 0.00 0.07 0.07 61 1006.1
20260904012559 69 323 3.0 7.0 0.00 0.07 0.07 60 1006.1
20260904012059 69 313 2.0 5.0 0.00 0.07 0.07 59 1006.1
20260904011600 70 316 2.0 5.0 0.00 0.07 0.07 58 1006.1
20260904011058 70 317 0.0 4.0 0.00 0.07 0.07 57 1006.1
20260904010558 70 311 0.0 4.0 0.00 0.07 0.07 58 1006.1
20260904005558 71 311 2.0 5.0 0.00 0.07 0.07 55 1006.1
20260904005100 71 317 2.0 6.0 0.00 0.07 0.07 54 1006.1
20260904004602 72 309 3.0 7.0 0.00 0.07 0.07 53 1005.9
20260904004057 72 304 2.0 7.0 0.00 0.07 0.07 52 1006.0
20260904003557 72 308 1.0 4.0 0.00 0.07 0.07 50 1006.0
20260904003056 73 307 1.0 4.0 0.00 0.07 0.07 49 1006.1
20260904002557 73 326 0.0 2.0 0.00 0.07 0.07 46 1006.1
20260904002058 73 134 0.0 3.0 0.00 0.07 0.07 44 1006.1
20260904001559 73 136 0.0 3.0 0.00 0.07 0.07 44 1006.2
20260904001054 74 142 0.0 2.0 0.00 0.07 0.07 42 1006.3
20260904000554 74 139 0.0 4.0 0.00 0.07 0.07 37 1006.2
20260904000128 74 139 0.0 4.0 0.00 0.07 0.07 38 1006.3
20260903235553 74 141 0.0 3.0 0.00 0.07 0.07 37 1006.3
20260903235056 74 132 0.0 5.0 0.00 0.07 0.07 36 1006.3
20260903234552 74 129 1.0 5.0 0.00 0.07 0.07 36 1006.3
20260903234052 74 117 0.0 6.0 0.00 0.07 0.07 35 1006.5
20260903233551 74 139 3.0 6.0 0.00 0.07 0.07 35 1006.7
20260903233050 75 86 2.0 6.0 0.00 0.07 0.07 36 1006.8
20260903232549 75 129 0.0 2.0 0.00 0.07 0.07 37 1006.9
20260903232048 75 139 0.0 2.0 0.00 0.07 0.07 38 1006.9
20260903231549 75 141 0.0 4.0 0.00 0.07 0.07 35 1006.9
20260903231048 75 131 0.0 4.0 0.00 0.07 0.07 35 1006.9
20260903230547 75 129 0.0 4.0 0.00 0.07 0.07 36 1007.0
20260903230049 75 125 1.0 5.0 0.00 0.07 0.07 36 1007.1
20260903225546 75 144 0.0 6.0 0.00 0.07 0.07 35 1007.1
20260903225046 75 125 2.0 6.0 0.00 0.07 0.07 35 1007.2
20260903224544 75 145 3.0 5.0 0.00 0.07 0.07 35 1007.3
20260903224044 75 125 1.0 5.0 0.00 0.07 0.07 35 1007.3
20260903223544 75 129 2.0 5.0 0.00 0.07 0.07 34 1007.5
20260903223044 75 117 1.0 7.0 0.00 0.07 0.07 36 1007.5
20260903222542 75 138 1.0 7.0 0.00 0.07 0.07 37 1007.6
20260903222042 75 121 1.0 4.0 0.00 0.07 0.07 36 1007.5
20260903221542 75 117 2.0 4.0 0.00 0.07 0.07 36 1007.5
20260903221042 75 128 1.0 3.0 0.00 0.07 0.07 38 1007.5
20260903220541 75 146 1.0 3.0 0.00 0.07 0.07 36 1007.5
20260903220048 75 106 1.0 6.0 0.00 0.07 0.07 36 1007.6
20260903215540 75 143 2.0 6.0 0.00 0.07 0.07 36 1007.7
20260903215038 75 77 2.0 4.0 0.00 0.07 0.07 36 1007.7
20260903214542 75 132 2.0 5.0 0.00 0.07 0.07 35 1007.8
20260903214038 75 77 1.0 6.0 0.00 0.07 0.07 37 1007.8
20260903213539 75 108 2.0 6.0 0.00 0.07 0.07 35 1007.9
20260903213040 75 149 2.0 5.0 0.00 0.07 0.07 37 1008.0
20260903212534 75 124 1.0 3.0 0.00 0.07 0.07 40 1008.1
20260903212037 74 115 2.0 5.0 0.00 0.07 0.07 40 1008.2
20260903211601 74 122 1.0 5.0 0.00 0.07 0.07 39 1008.3
20260903211033 74 102 1.0 3.0 0.00 0.07 0.07 40 1008.4
20260903210531 74 143 2.0 3.0 0.00 0.07 0.07 39 1008.5
20260903210031 73 131 1.0 4.0 0.00 0.07 0.07 40 1008.5
20260903205530 73 207 1.0 4.0 0.00 0.07 0.07 39 1008.6
20260903205029 73 98 1.0 7.0 0.00 0.07 0.07 40 1008.8
20260903204529 73 94 2.0 7.0 0.00 0.07 0.07 40 1008.9
20260903204028 74 159 2.0 5.0 0.00 0.07 0.07 41 1009.0
20260903203528 74 97 1.0 4.0 0.00 0.07 0.07 41 1009.1
20260903203027 74 153 0.0 6.0 0.00 0.07 0.07 40 1009.1
20260903202525 74 165 2.0 6.0 0.00 0.07 0.07 41 1009.3
20260903202024 74 132 1.0 4.0 0.00 0.07 0.07 39 1009.4
20260903201523 74 165 1.0 4.0 0.00 0.07 0.07 39 1009.5
20260903201023 75 127 1.0 5.0 0.00 0.07 0.07 38 1009.6
20260903200522 75 84 1.0 5.0 0.00 0.07 0.07 37 1009.7
20260903200021 74 127 1.0 5.0 0.00 0.07 0.07 38 1009.7
20260903195519 73 114 1.0 4.0 0.00 0.07 0.07 41 1009.9
20260903195018 73 124 1.0 4.0 0.00 0.07 0.07 41 1010.0
20260903194518 73 50 1.0 5.0 0.00 0.07 0.07 41 1010.1
20260903194017 73 159 2.0 5.0 0.00 0.07 0.07 42 1010.1
20260903193515 73 125 1.0 6.0 0.00 0.07 0.07 42 1010.2
20260903193014 72 307 0.0 6.0 0.00 0.07 0.07 44 1010.2
20260903192513 72 221 3.0 5.0 0.00 0.07 0.07 44 1010.4
20260903192010 71 96 0.0 3.0 0.00 0.07 0.07 43 1010.5
20260903191515 71 117 1.0 4.0 0.00 0.07 0.07 44 1010.5
20260903191009 71 117 1.0 5.0 0.00 0.07 0.07 45 1010.7
20260903190508 70 122 1.0 5.0 0.00 0.07 0.07 45 1010.8
20260903190006 70 91 1.0 5.0 0.00 0.07 0.07 46 1010.9
20260903185506 70 274 1.0 5.0 0.00 0.07 0.07 46 1010.9
20260903185004 69 127 1.0 3.0 0.00 0.07 0.07 47 1011.1
20260903184502 69 117 0.0 3.0 0.00 0.07 0.07 50 1011.3
20260903184004 68 121 1.0 4.0 0.00 0.07 0.07 50 1011.3
20260903183500 68 159 2.0 6.0 0.00 0.07 0.07 48 1011.4
20260903183004 68 136 2.0 6.0 0.00 0.07 0.07 48 1011.5
20260903182601 68 117 3.0 6.0 0.00 0.07 0.07 49 1011.5
20260903182100 68 143 2.0 6.0 0.00 0.07 0.07 49 1011.6
20260903181558 68 63 2.0 7.0 0.00 0.07 0.07 49 1011.7
20260903181058 68 117 3.0 7.0 0.00 0.07 0.07 48 1011.7
20260903180557 68 156 2.0 5.0 0.00 0.07 0.07 50 1011.8
20260903180107 67 132 1.0 6.0 0.00 0.07 0.07 50 1011.8
20260903175555 67 150 2.0 6.0 0.00 0.07 0.07 50 1011.8
20260903175054 67 129 2.0 5.0 0.00 0.07 0.07 51 1011.8
20260903174609 67 129 2.0 5.0 0.00 0.07 0.07 51 1011.9
20260903174054 66 75 2.0 7.0 0.00 0.07 0.07 53 1011.9
20260903173551 66 51 3.0 7.0 0.00 0.07 0.07 54 1012.0
20260903173055 66 149 2.0 5.0 0.00 0.07 0.07 54 1012.0
20260903172550 66 78 3.0 5.0 0.00 0.07 0.07 54 1012.0
20260903172053 65 132 3.0 5.0 0.00 0.07 0.07 55 1012.2
20260903171549 65 124 2.0 5.0 0.00 0.07 0.07 56 1012.1
20260903171047 65 114 2.0 5.0 0.00 0.07 0.07 57 1012.2
20260903170547 65 143 1.0 8.0 0.00 0.07 0.07 57 1012.2
20260903170105 64 184 4.0 8.0 0.00 0.07 0.07 56 1012.2
20260903165545 64 166 2.0 6.0 0.00 0.07 0.07 58 1012.3
20260903165047 64 108 2.0 5.0 0.00 0.07 0.07 58 1012.2
20260903164550 64 57 3.0 6.0 0.00 0.07 0.07 58 1012.2
20260903164042 64 150 2.0 6.0 0.00 0.07 0.07 59 1012.2
20260903163541 63 51 2.0 6.0 0.00 0.07 0.07 58 1012.2
20260903163041 63 89 3.0 6.0 0.00 0.07 0.07 58 1012.1
20260903162539 63 184 3.0 7.0 0.00 0.07 0.07 59 1012.0
20260903162038 63 105 3.0 7.0 0.00 0.07 0.07 59 1012.1
20260903161539 62 100 2.0 5.0 0.00 0.07 0.07 61 1012.0
20260903161037 62 47 2.0 5.0 0.00 0.07 0.07 61 1012.1
20260903160536 62 138 1.0 5.0 0.00 0.07 0.07 61 1012.2
20260903160036 62 134 1.0 5.0 0.00 0.07 0.07 62 1012.2
20260903155539 62 82 1.0 4.0 0.00 0.07 0.07 62 1012.3
20260903155036 62 129 2.0 5.0 0.00 0.07 0.07 64 1012.3
20260903154536 62 142 3.0 5.0 0.00 0.07 0.07 64 1012.3
20260903154036 62 149 2.0 5.0 0.00 0.07 0.07 64 1012.3
20260903153536 62 156 1.0 4.0 0.00 0.07 0.07 64 1012.4
20260903153043 62 47 1.0 4.0 0.00 0.07 0.07 62 1012.4
20260903152537 61 94 1.0 3.0 0.00 0.07 0.07 63 1012.4
20260903152035 61 101 0.0 2.0 0.00 0.07 0.07 64 1012.4
20260903151542 61 42 0.0 5.0 0.00 0.07 0.07 66 1012.4
20260903151034 61 143 0.0 5.0 0.00 0.07 0.07 67 1012.3
20260903150534 60 123 0.0 2.0 0.00 0.07 0.07 67 1012.3
20260903150035 60 131 0.0 3.0 0.00 0.07 0.07 68 1012.3
20260903145534 60 85 0.0 3.0 0.00 0.07 0.07 68 1012.3
20260903145035 60 135 0.0 2.0 0.00 0.07 0.07 69 1012.4
20260903144535 60 140 0.0 1.0 0.00 0.07 0.07 70 1012.3
20260903144034 60 139 0.0 1.0 0.00 0.07 0.07 70 1012.3
20260903143533 60 127 0.0 1.0 0.00 0.07 0.07 70 1012.3
20260903143033 60 108 0.0 1.0 0.00 0.07 0.07 70 1012.2
20260903142534 59 112 0.0 1.0 0.00 0.07 0.07 70 1012.3
20260903142033 59 115 0.0 1.0 0.00 0.07 0.07 69 1012.2
20260903141533 59 126 0.0 1.0 0.00 0.07 0.07 70 1012.2
20260903141032 59 124 0.0 1.0 0.00 0.07 0.07 69 1012.2
20260903140531 59 123 0.0 1.0 0.00 0.07 0.07 69 1012.2
20260903140030 59 129 0.0 2.0 0.00 0.07 0.07 70 1012.1
20260903135530 59 132 0.0 2.0 0.00 0.07 0.07 71 1012.0
20260903135030 59 225 0.0 1.0 0.00 0.07 0.07 72 1012.0
20260903134530 59 243 0.0 1.0 0.00 0.07 0.07 70 1011.9
20260903134035 59 243 0.0 1.0 0.00 0.07 0.07 72 1011.9
20260903133532 59 117 0.0 2.0 0.00 0.07 0.07 73 1011.9
20260903133030 59 117 0.0 2.0 0.00 0.07 0.07 72 1011.8
20260903132529 58 126 0.0 2.0 0.00 0.07 0.07 73 1011.7
20260903132028 58 117 0.0 3.0 0.00 0.07 0.07 73 1011.7
20260903131528 58 134 0.0 3.0 0.00 0.07 0.07 73 1011.6
20260903131034 58 121 1.0 3.0 0.00 0.07 0.07 74 1011.5
20260903130527 58 67 0.0 3.0 0.00 0.07 0.07 76 1011.5
20260903130028 57 148 1.0 3.0 0.00 0.07 0.07 76 1011.4
20260903125527 57 114 0.0 1.0 0.00 0.07 0.07 78 1011.4
20260903125027 57 114 0.0 0.0 0.00 0.07 0.07 80 1011.5
20260903124526 57 134 0.0 0.0 0.00 0.07 0.07 81 1011.5
20260903124026 57 137 0.0 0.0 0.00 0.07 0.07 79 1011.7
20260903123526 57 136 0.0 1.0 0.00 0.07 0.07 80 1011.7
20260903123028 57 137 0.0 1.0 0.00 0.07 0.07 79 1011.7
20260903122529 57 124 1.0 2.0 0.01 0.07 0.07 78 1011.7
20260903122025 57 153 0.0 3.0 0.01 0.07 0.07 79 1011.7
20260903121525 57 99 0.0 3.0 0.01 0.07 0.07 78 1011.7
20260903121025 57 138 0.0 2.0 0.01 0.07 0.07 78 1011.7
20260903120525 57 139 0.0 4.0 0.01 0.07 0.07 79 1011.7
20260903120028 57 109 1.0 4.0 0.02 0.07 0.07 81 1011.8
20260903115529 56 136 0.0 1.0 0.02 0.07 0.07 84 1011.8
20260903115023 56 132 0.0 1.0 0.02 0.07 0.07 85 1011.9
20260903114523 56 134 0.0 1.0 0.02 0.07 0.07 86 1011.9
20260903114021 56 129 0.0 1.0 0.02 0.07 0.07 86 1012.0
20260903113523 56 72 0.0 1.0 0.03 0.07 0.07 86 1012.0
20260903113021 56 153 0.0 1.0 0.03 0.07 0.07 86 1012.0
20260903112520 56 153 0.0 1.0 0.02 0.06 0.06 86 1012.1
20260903112020 56 153 0.0 1.0 0.02 0.06 0.06 86 1012.1
20260903111532 56 153 0.0 1.0 0.02 0.06 0.06 85 1012.1
20260903111018 56 153 0.0 1.0 0.02 0.06 0.06 85 1012.1
20260903110518 57 154 0.0 0.0 0.02 0.06 0.06 86 1012.2